This demonstration page uses our WeatherBlox Daily Observations layout. Learn more.

Left ArrowRight Arrow

38.89511, -77.03637

Hourly Observations for January 21, 2022

Temp ( °F °C ) Dew Point ( °F °C ) Humidity (%) Winds ( mph kmh ) Pressure ( in mb ) Visibility ( mi km ) Precip ( " mm )
12:52 am 00:52 Mostly Cloudy 27 -2.8 9 -12.8 46 46 N 18 30 30.41 1030 10 16 0.00 0.00
1:52 am 01:52 Mostly Cloudy 26 -3.3 8 -13.3 46 46 NNE 17 28 30.42 1030 10 16 0.00 0.00
2:52 am 02:52 Partly Cloudy 24 -4.4 8 -13.3 50 50 NNE 20 31 30.43 1031 10 16 0.00 0.00
3:52 am 03:52 Mostly Cloudy 23 -5 8 -13.3 53 53 NNW 14 22 30.44 1031 10 16 0.00 0.00
4:52 am 04:52 Cloudy 22 -5.6 7 -13.9 52 52 N 17 28 30.46 1032 10 16 0.00 0.00
5:52 am 05:52 Cloudy 20 -6.7 3 -16.1 48 48 N 20 31 30.48 1032 10 16 0.00 0.00
6:52 am 06:52 Cloudy 20 -6.7 3 -16.1 48 48 N 16 26 30.52 1034 10 16 0.00 0.00
7:52 am 07:52 Cloudy 19 -7.2 3 -16.1 49 49 N 14 22 30.54 1034 10 16 0.00 0.00
8:52 am 08:52 Sunny 19 -7.2 3 -16.1 49 49 N 14 22 30.55 1035 10 16 0.00 0.00
9:52 am 09:52 Mostly Cloudy 19 -7.2 4 -15.6 51 51 NNW 16 26 30.58 1036 10 16 0.00 0.00
10:52 am 10:52 Mostly Cloudy 21 -6.1 5 -15 50 50 N 13 20 30.57 1035 10 16 0.00 0.00
11:52 am 11:52 Mostly Cloudy 24 -4.4 4 -15.6 42 42 NNE 8 13 30.55 1035 10 16 0.00 0.00
12:52 pm 12:52 Mostly Cloudy 26 -3.3 6 -14.4 42 42 NNE 12 19 30.52 1034 10 16 0.00 0.00
1:52 pm 13:52 Cloudy 26 -3.3 6 -14.4 42 42 N 13 20 30.50 1033 10 16 0.00 0.00
2:52 pm 14:52 Cloudy 26 -3.3 6 -14.4 42 42 NNE 10 17 30.50 1033 10 16 0.00 0.00
3:52 pm 15:52 Cloudy 26 -3.3 6 -14.4 42 42 NNE 9 15 30.51 1033 10 16 0.00 0.00
4:52 pm 16:52 Cloudy 25 -3.9 5 -15 42 42 NE 8 13 30.52 1033 10 16 0.00 0.00
5:52 pm 17:52 Cloudy 25 -3.9 6 -14.4 44 44 N 9 15 30.52 1034 10 16 0.00 0.00
6:52 pm 18:52 Cloudy 25 -3.9 7 -13.9 46 46 NNE 13 20 30.53 1034 10 16 0.00 0.00
7:52 pm 19:52 Cloudy 25 -3.9 7 -13.9 46 46 NNE 14 22 30.52 1034 10 16 0.00 0.00
8:52 pm 20:52 Cloudy 25 -3.9 7 -13.9 46 46 NNE 12 19 30.52 1033 10 16 0.00 0.00
9:52 pm 21:52 Cloudy 24 -4.4 6 -14.4 46 46 N 14 22 30.51 1033 10 16 0.00 0.00
10:52 pm 22:52 Cloudy 24 -4.4 6 -14.4 46 46 N 12 19 30.50 1033 10 16 0.00 0.00
11:52 pm 23:52 Cloudy 24 -4.4 7 -13.9 48 48 N 9 15 30.49 1033 10 16 0.00 0.00

Powered by AerisWeather